Retour au catalogue

SL-12 DEB

ActifUNKNOWN
NORAD 24833·DEBRIS·🇷🇺 Russia

Lancé Jun 6, 1997 depuis Baikonur Cosmodrome

Loading…

Prochains Passages (prochaines 24 heures)

TLE

FraisSource: Space-Track

Époque: Sep 14, 2026, 21:33 UTC

1 24833U 97028F   26257.89840071  .00000238  00000-0  30652-2 0  9996
2 24833  63.3168 122.4453 1096200  49.9907 336.2287 11.06829799182943

Suivez SL-12 DEB en temps réel avec AllMySat

Download on the App Store